Flag for United Arab Emirates Weather past 2 weeks in Ras al-Khaimah, Ras al-Khaimah, United Arab Emirates

Now
61 °F

Sunny.


Feels Like: 61 °F
Forecast: 61 / 79 °F
Wind: 2 mph from South

Location: Ras Al Khaimah International Airport

Current Time: Feb 1, 2015 at 9:15:10 AM

Latest Report: Feb 1, 2015 at 8:00 AM


Visibility: 10 mi

Pressure: 30.04 "Hg

Humidity: 68%

Dew point: 50 °F

Location of Ras al-KhaimahLocation

Historic Weather in Ras al-Khaimah — Graph

°F

Ras al-Khaimah temperature yesterday

Maximum temperature yesterday: 86 °F (at 12:00 PM)
Minimum temperature yesterday: 54 °F (at 6:00 AM)
Average temperature yesterday: 69 °F

Past Weeks' High & Low Weather Summary

 TemperatureHumidityPressure
High86 °F (Jan 30, 2:00 PM)100% (Jan 19, 6:00 AM)30.27 "Hg (Jan 19, 6:00 AM)
Low48 °F (Jan 21, 5:00 AM)25% (Jan 30, 1:00 PM)29.92 "Hg (Jan 19, 2:00 PM)
Average64 °F71%30.10 "Hg
* Reported Jan 17 8:00 AM — Feb 1 8:00 AM, Ras al-Khaimah, Weather by CustomWeather, © 2014

Note: Actual official high and low records may vary slightly from our data, if they occured in-between our weather recording intervals... More about our weather records

Advertising

Ras al-Khaimah weather history for previous 24 hours

 ConditionsComfort  
Time TempWeatherWind HumidityBarometerVisibility
8:00 AM
Feb 1
61 °FSunny.2 mph68%30.04 "Hg10 mi
6:00 AM57 °FClear.3 mph82%29.98 "Hg10 mi
5:00 AM57 °FClear.3 mph82%29.98 "Hg10 mi
4:00 AM59 °FClear.2 mph82%30.01 "Hg10 mi
3:00 AM61 °FClear.6 mph77%30.04 "Hg10 mi
2:00 AM61 °FClear.6 mph77%30.04 "Hg10 mi
1:00 AM63 °FPassing clouds.3 mph83%30.04 "HgN/A
12:00 AM61 °FClear.2 mph88%30.04 "Hg10 mi
11:00 PM
Jan 31
64 °FClear.7 mph78%30.04 "Hg10 mi
10:00 PM64 °FClear.No wind78%30.07 "Hg10 mi
9:00 PM66 °FClear.3 mph78%30.07 "Hg10 mi
8:00 PM72 °FClear.5 mph65%30.07 "Hg10 mi
7:00 PM72 °FClear.6 mph69%30.07 "Hg10 mi
6:00 PM75 °FClear.9 mph57%30.04 "Hg10 mi
5:00 PM79 °FSunny.12 mph45%30.01 "Hg10 mi
4:00 PM81 °FSunny.15 mph39%30.01 "Hg10 mi
3:00 PM84 °FSunny.14 mph35%30.01 "Hg10 mi
2:00 PM86 °FPassing clouds.12 mph31%30.04 "HgN/A
1:00 PM86 °FPassing clouds.10 mph25%30.07 "HgN/A
12:00 PM86 °FPassing clouds.10 mph25%30.09 "HgN/A
11:00 AM82 °FPassing clouds.5 mph30%30.12 "HgN/A
10:00 AM75 °FSunny.2 mph44%30.12 "Hg10 mi
9:00 AM68 °FSunny.2 mph60%30.12 "Hg10 mi
Weather by CustomWeather, © 2014

See weather overviewHow to use our weather pages